Regional Weather Roundup
Issued by NWS Mt. Holly, NJ

Current Version | Previous Version | Text Only | Print | Product List | Glossary Off
Versions: 1 2 3 4 5 6 7 8 9 10 11 12 13 14 15 16 17 18 19 20 21 22 23 24 25 26 27 28 29 30 31 32 33 34 35 36 37 38 39 40 41 42 43 44 45 46 47 48 49 50

000
ASUS41 KPHI 270110
RWRPHI

REGIONAL WEATHER ROUNDUP
NATIONAL WEATHER SERVICE MOUNT HOLLY NJ
800 PM EST WED NOV 26 2014

NOTE:  "FAIR" INDICATES FEW OR NO CLOUDS BELOW 12,000 FEET WITH NO
SIGNIFICANT WEATHER AND/OR OBSTRUCTIONS TO VISIBILITY.

 * = STATION DOES NOT REPORT PRECIPITATION (E.G. RAIN, SNOW, ETC.)
        OR FOG.

NJZ015>026-270200-
SOUTHERN NEW JERSEY

CITY           SKY/WX    TMP DP  RH WIND       PRES   REMARKS
POMONA         LGT SNOW  35  34  96 NW18G26   29.81R FOG     WCI  24
RIO GRANDE*    CLOUDY    37  30  75 NW10G23   29.83R WCI  30
MILLVILLE      MIX PCPN  36  34  92 NW12G22   29.85R WCI  28
WRIGHTSTOWN    FLURRIES  34  34  98 NW16G23   29.81R WCI  24
MOUNT HOLLY    MIX PCPN  35  33  92 NW12G21   29.84S FOG     WCI  27
TRENTON        LGT SNOW  34  32  92 NW9G20    29.84R FOG     WCI  27

$$
NJZ001>014-270200-
NORTHERN NEW JERSEY

CITY           SKY/WX    TMP DP  RH WIND       PRES   REMARKS
SUSSEX         LGT SNOW  34  31  88 N8        29.86S FOG     WCI  27
ANDOVER*         N/A     33  31  92 N9        29.86S WCI  25
NEWARK         LGT SNOW  35  33  92 N18G26    29.82R FOG     WCI  24
TETERBORO      LGT RAIN  36  30  80 N14G21    29.81R WCI  27
CALDWELL       LGT SNOW  34  30  85 CALM      29.84S FOG
SOMERVILLE     LGT RAIN  36  32  85 N8        29.83F WCI  30
ALLAIRE*       CLOUDY    36  30  80 NW16G25   29.79R WCI  26
TOMS RIVER*    CLOUDY    36  34  93 NW6       29.81R WCI  31

$$
PAZ043-044-047-054-055-060>062-066>071-270200-
EASTERN PENNSYLVANIA

CITY           SKY/WX    TMP DP  RH WIND       PRES   REMARKS
PHILADELPHIA   LGT RAIN  37  33  85 NW21G30   29.87S WCI  26
NORTH PHILA    LGT RAIN  37  31  78 NW16G25   29.86F WCI  28
BLUE BELL      CLOUDY    34  34 100 CALM      29.86F
DOYLESTOWN     FLURRIES  32  32 100 NW10G17   29.86S WCI  24
QUAKERTOWN*    CLOUDY    32  32 100 N7        29.88S WCI  26
POTTSTOWN      MIX PCPN  34  32  92 NW12      29.89F WCI  25
LANCASTER      CLOUDY    34  31  88 N8        29.91F WCI  27
COATESVILLE    LGT SNOW  32  32 100 NW13      29.89S WCI  22
READING        LGT SNOW  35  31  85 N7        29.90F WCI  29
ALLENTOWN      FLURRIES  35  31  85 NW5       29.89F WCI  31
MOUNT POCONO   LGT SNOW  30  26  85 NW16G25   29.83S FOG     WCI  19
HAZLETON       LGT SNOW  32  30  93 N12       29.91F WCI  23
WILKES BARRE   LGT SNOW  32  29  88 VRB6      29.92F FOG     WCI  26

$$
DEZALL-MDZ008-012-015-019-020-270200-
DELAWARE AND EASTERN MARYLAND

CITY           SKY/WX    TMP DP  RH WIND       PRES   REMARKS
WILMINGTON     LGT RAIN  36  34  92 NW14      29.89S WCI  27
DOVER          LGT RAIN  37  37 100 NW18      29.85S WCI  27
GEORGETOWN     CLOUDY    38  35  89 N12G20    29.88R WCI  30
EASTON         CLOUDY    39  39 100 N13G18    29.94S WCI  32
PATUXENT       CLOUDY    39  35  86 NW15      29.92R WCI  31
OCEAN CITY     CLOUDY    37  34  89 N18G26    29.85R WCI  27
WALLOPS ISLAND CLOUDY    37  35  92 N14G23    29.87S WCI  28
CAMBRIDGE      CLOUDY    41  37  87 NW10G18   29.90R
SALISBURY      LGT RAIN  39  36  89 NW14G21   29.88R WCI  31

$$
PAZ001-021-NYZ056-072-MDZ011-DCZ001-270200-
OTHER NEARBY LOCATIONS

CITY           SKY/WX    TMP DP  RH WIND       PRES   REMARKS
HARRISBURG     FLURRIES  34  31  88 NW13      29.94S WCI  25
STATE COLLEGE  LGT SNOW  30  30 100 CALM      29.95F FOG
WILLIAMSPORT   FLURRIES  33  30  88 W10       29.97F WCI  25
BINGHAMTON     CLOUDY    40  27  59 N9        29.92F HAZE    WCI  34
NEW YORK CITY  LGT RAIN  35  32  88 N8        29.82R FOG     WCI  29
BALTIMORE      CLOUDY    36  33  89 NW7       29.93R WCI  30
WASHINGTON DC  CLOUDY    39  33  79 NW8       29.97R WCI  33

$$



USA.gov is the U.S. government's official web portal to all federal, state and local government web resources and services.